INMARSAT 5-F4

Last updated on Nov. 15, 2019, 4:20 a.m. UTC

1 42698U 17025A   19318.14910578  .00000089  00000-0  00000+0 0  9997
2 42698   0.0181 290.8248 0000713 336.2420 256.1050  1.00271182  9128
UTC
Height (km)
Latitude
Longitude
Inclination
Orbital Period
UTC large
Height (km)
Speed (km/s)
/
Latitude / Longitude
Inclination (degrees)
Orbital Period (minutes)
Azimuth
Elevation
Range (km)
Doppler Factor
iOS Compass Heading
iOS Angle

Next 30 passes for location: Hong Kong

Rise time Rise Azimuth (degrees) Set time Set Azimuth (degrees) Duration Max altitude (degrees)

No matching passes for this satellites